Orbital Elements at Epoch 2459200.5 (2020-Dec-17.0) TDB
Reference: JPL 32 (heliocentric ecliptic J2000)
Element | Value | Uncertainty (1-sigma) | Units |
e | .1964303630730856 | 1.8424e-08 | |
a | 2.78987419714795 | 1.4783e-08 | au |
q | 2.241858195673945 | 5.3748e-08 | au |
i | 24.70916919404073 | 3.6064e-07 | deg |
node | 108.7093962746619 | 1.8799e-06 | deg |
peri | 308.2147610989419 | 5.5559e-06 | deg |
M | 182.9287213234048 | 8.962e-06 | deg |
tp | 2460037.684116122002 (2023-Apr-03.18411612) | 4.6382e-05 | TDB |
period | 1702.061927018529 4.66 | 1.3528e-05 3.704e-08 | d yr |
n | .2115081679963345 | 1.6811e-09 | deg/d |
Q | 3.337890198621956 | 1.7687e-08 | au |
|
| | Orbit Determination Parameters
Additional Information
|